Welcome to the New NWS' Forecast!
Most changes are behind the scenes, but click here for differences you might notice.

Regional Weather Roundup (RWR)

Issued by Gray - Portland, ME (GYX)

                            
441 
ASUS41 KGYX 162005
RWRGYX
WEATHER ROUNDUP FOR MAINE AND NEW HAMPSHIRE
NATIONAL WEATHER SERVICE GRAY ME
400 PM EDT THU AUG 16 2018

MEZ002-005-006-010-012-015-018-020-021-024-026-027-029-162100-
MAINE
  
CITY           SKY/WX    TMP DP  RH WIND       PRES   REMARKS
PORTLAND       FAIR      85  59  41 NW8       29.96R                  
SANFORD        FAIR      84  58  40 W13G20    29.99R                  
BAR HARBOR     FAIR      79  58  48 N13       29.95S                  
WISCASSET      FAIR      82  61  48 VRB5      29.97R                  
ROCKLAND       FAIR      80  63  55 VRB5      29.96R                  
FRYEBURG       FAIR      82  54  37 W9G17     30.00R                  
LEWISTONAUBURN FAIR      81  58  45 N10       29.98S                  
AUGUSTA        FAIR      80  54  40 N14       29.99S                  
WATERVILLE     PTSUNNY   78  56  46 VRB6      29.97S                  
BANGOR         PTSUNNY   79  55  43 NW10      29.97S                  
GREENVILLE       N/A     69  50  50 W9        30.01S                  
MILLINOCKET    PTSUNNY   75  52  44 CALM      29.99S                  
HOULTON        CLOUDY    71  57  61 NW9       29.97R                  
PRESQUE ISLE   CLOUDY    69  55  60 NW8       30.00S                  
FRENCHVILLE    CLOUDY    69  50  50 N15       30.01S                  
CARIBOU        CLOUDY    70  53  54 N8        29.99R                  
$$

NHZ002-005-008-009-011-012-014-162100-
NEW HAMPSHIRE
  
CITY           SKY/WX    TMP DP  RH WIND       PRES   REMARKS
PORTSMOUTH     MOSUNNY   87  58  37 NW15      29.96R                  
ROCHESTER      FAIR      84  59  42 NW13G23   29.98S                  
MANCHESTER     NOT AVBL                                               
CONCORD        FAIR      85  60  42 N12       30.00R                  
LACONIA        FAIR      82  59  45 NW13      30.01S                  
PLYMOUTH       FAIR      81  55  41 SW9       30.01S                  
BERLIN         FAIR      77  53  43 NW9G17    30.04S                  
WHITEFIELD     FAIR      77  56  48 VRB6      30.05R                  
JAFFREY        NOT AVBL                                               
LEBANON        FAIR      85  61  44 N9        30.01S                  
MT WASHINGTON  PTSUNNY   50  46  87 W40G51      N/A                   
$$

VTZ005-007-008-162100-
VERMONT
  
CITY           SKY/WX    TMP DP  RH WIND       PRES   REMARKS
ST JOHNSBURY     N/A     76  53  44 MISG      30.03R                  
MONTPELIER     FAIR      76  59  55 N9        30.10S                  
BURLINGTON     FAIR      79  55  43 NE7       30.04S                  
$$

MAZ007-012-024-CTZ003-RIZ002-NYZ038-NYZ072-162100-
SOUTHERN NEW ENGLAND AND NY
  
CITY           SKY/WX    TMP DP  RH WIND       PRES   REMARKS
BOSTON         PTSUNNY   91  68  46 W8G22     29.96S HX  95           
WORCESTER      FAIR      83  69  62 W13       30.04S                  
NANTUCKET      FAIR      81  74  79 SW17      30.00S                  
PROVIDENCE     FAIR      89  70  53 W13       30.00S HX  94           
HARTFORD       FAIR      89  67  47 NW12      30.02S HX  92           
ALBANY         FAIR      88  67  49 W8        30.02F HX  91           
NEW YORK CITY  FAIR      92  62  36 W9        30.03F HX  92           
$$

ANZ081-ANZ082-ANZ150-NHZ014-MEZ023>029-162100-
COASTAL MARINE OBSERVATIONS
  
STATION/POSITION TIME  TEMP    WIND        PRES    WAVE
                       AIR SEA DIR/SP/G            HT/PER
                 (UTC) (F)     (DEG/KT/KT) (MB)    (FT/S)
MOUNT DESERT ROC 2000   65     250/ 10/ 11 1014.6R
MATINICUS ROCK   1900   70     250/  6/  6 1014.1R
ISLE OF SHOALS   1900   79     180/  4/  6 1014.1S
JEFFREYS LEDGE   1936      70                N/A     1/ 7
$$

.............KEY..............
   WCI - WIND CHILL
   TC  - TEMPERATURE IN CELSIUS
   VSB - VISIBILITY IN MILES
   HX  - HEAT INDEX
   FAIR- INDICATES FEW OR NO CLOUDS BELOW 12,000 FT, WITH NO 
         SIGNIFICANT WEATHER AND/OR OBSTRUCTIONS TO VISIBILITY.